Year,Month,Day,Hour,Minute,Value (Times are PST for temperature in C)
2011,04,16,00,00,2.40
2011,04,16,00,01,2.40
2011,04,16,00,02,2.40
2011,04,16,00,03,2.40
2011,04,16,00,04,2.40
2011,04,16,00,05,2.30
2011,04,16,00,06,2.30
2011,04,16,00,07,2.30
2011,04,16,00,08,2.30
2011,04,16,00,09,2.30
2011,04,16,00,10,2.30
2011,04,16,00,11,2.30
2011,04,16,00,12,2.20
2011,04,16,00,13,2.20
2011,04,16,00,14,2.20
2011,04,16,00,15,2.20
2011,04,16,00,16,2.20
2011,04,16,00,17,2.20
2011,04,16,00,18,2.10
2011,04,16,00,19,2.10
2011,04,16,00,20,2.10
2011,04,16,00,21,2.10
2011,04,16,00,22,2.10
2011,04,16,00,23,2.00
2011,04,16,00,24,2.00
2011,04,16,00,25,2.00
2011,04,16,00,26,2.00
2011,04,16,00,27,2.00
2011,04,16,00,28,1.90
2011,04,16,00,29,1.90
2011,04,16,00,30,1.90
2011,04,16,00,31,1.90
2011,04,16,00,32,1.90
2011,04,16,00,33,1.80
2011,04,16,00,34,1.80
2011,04,16,00,35,1.80
2011,04,16,00,36,1.80
2011,04,16,00,37,1.80
2011,04,16,00,38,1.80
2011,04,16,00,39,1.80
2011,04,16,00,40,1.80
2011,04,16,00,41,1.80
2011,04,16,00,42,1.80
2011,04,16,00,43,1.70
2011,04,16,00,44,1.70
2011,04,16,00,45,1.70
2011,04,16,00,46,1.70
2011,04,16,00,47,1.70
2011,04,16,00,48,1.70
2011,04,16,00,49,1.60
2011,04,16,00,50,1.60
2011,04,16,00,51,1.60
2011,04,16,00,52,1.60
2011,04,16,00,53,1.60
2011,04,16,00,54,1.60
2011,04,16,00,55,1.60
2011,04,16,00,56,1.50
2011,04,16,00,57,1.50
2011,04,16,00,58,1.50
2011,04,16,00,59,1.50
2011,04,16,01,00,1.50
2011,04,16,01,01,1.40
2011,04,16,01,02,1.40
2011,04,16,01,03,1.40
2011,04,16,01,04,1.40
2011,04,16,01,05,1.40
2011,04,16,01,06,1.40
2011,04,16,01,07,1.30
2011,04,16,01,08,1.30
2011,04,16,01,09,1.30
2011,04,16,01,10,1.30
2011,04,16,01,11,1.30
2011,04,16,01,12,1.30
2011,04,16,01,13,1.30
2011,04,16,01,14,1.30
2011,04,16,01,15,1.30
2011,04,16,01,16,1.30
2011,04,16,01,17,1.30
2011,04,16,01,18,1.30
2011,04,16,01,19,1.30
2011,04,16,01,20,1.30
2011,04,16,01,21,1.30
2011,04,16,01,22,1.30
2011,04,16,01,23,1.30
2011,04,16,01,24,1.30
2011,04,16,01,25,1.30
2011,04,16,01,26,1.30
2011,04,16,01,27,1.30
2011,04,16,01,28,1.30
2011,04,16,01,29,1.30
2011,04,16,01,30,1.30
2011,04,16,01,31,1.30
2011,04,16,01,32,1.30
2011,04,16,01,33,1.30
2011,04,16,01,34,1.30
2011,04,16,01,35,1.30
2011,04,16,01,36,1.30
2011,04,16,01,37,1.30
2011,04,16,01,38,1.30
2011,04,16,01,39,1.30
2011,04,16,01,40,1.30
2011,04,16,01,41,1.20
2011,04,16,01,42,1.20
2011,04,16,01,43,1.20
2011,04,16,01,44,1.20
2011,04,16,01,45,1.20
2011,04,16,01,46,1.20
2011,04,16,01,47,1.20
2011,04,16,01,48,1.20
2011,04,16,01,49,1.20
2011,04,16,01,50,1.20
2011,04,16,01,51,1.20
2011,04,16,01,52,1.20
2011,04,16,01,53,1.20
2011,04,16,01,54,1.20
2011,04,16,01,55,1.20
2011,04,16,01,56,1.20
2011,04,16,01,57,1.20
2011,04,16,01,58,1.20
2011,04,16,01,59,1.20
2011,04,16,02,00,1.20
2011,04,16,02,01,1.20
2011,04,16,02,02,1.20
2011,04,16,02,03,1.20
2011,04,16,02,04,1.20
2011,04,16,02,05,1.20
2011,04,16,02,06,1.20
2011,04,16,02,07,1.20
2011,04,16,02,08,1.20
2011,04,16,02,09,1.10
2011,04,16,02,10,1.10
2011,04,16,02,11,1.10
2011,04,16,02,12,1.10
2011,04,16,02,13,1.10
2011,04,16,02,14,1.10
2011,04,16,02,15,1.00
2011,04,16,02,16,1.00
2011,04,16,02,17,1.00
2011,04,16,02,18,0.90
2011,04,16,02,19,0.90
2011,04,16,02,20,0.90
2011,04,16,02,21,0.90
2011,04,16,02,22,0.90
2011,04,16,02,23,0.90
2011,04,16,02,24,0.90
2011,04,16,02,25,0.90
2011,04,16,02,26,0.90
2011,04,16,02,27,0.90
2011,04,16,02,28,0.90
2011,04,16,02,29,0.90
2011,04,16,02,30,0.90
2011,04,16,02,31,0.90
2011,04,16,02,32,0.90
2011,04,16,02,33,0.90
2011,04,16,02,34,0.90
2011,04,16,02,35,0.90
2011,04,16,02,36,0.90
2011,04,16,02,37,0.90
2011,04,16,02,38,0.90
2011,04,16,02,39,0.90
2011,04,16,02,40,0.90
2011,04,16,02,41,0.90
2011,04,16,02,42,0.90
2011,04,16,02,43,0.90
2011,04,16,02,44,0.90
2011,04,16,02,45,0.90
2011,04,16,02,46,0.90
2011,04,16,02,47,0.90
2011,04,16,02,48,0.90
2011,04,16,02,49,1.00
2011,04,16,02,50,0.90
2011,04,16,02,51,1.00
2011,04,16,02,52,1.00
2011,04,16,02,53,1.00
2011,04,16,02,54,1.00
2011,04,16,02,55,1.00
2011,04,16,02,56,1.00
2011,04,16,02,57,1.00
2011,04,16,02,58,1.00
2011,04,16,02,59,1.00
2011,04,16,03,00,1.00
2011,04,16,03,01,1.00
2011,04,16,03,02,1.10
2011,04,16,03,03,1.10
2011,04,16,03,04,1.10
2011,04,16,03,05,1.10
2011,04,16,03,06,1.10
2011,04,16,03,07,1.10
2011,04,16,03,08,1.20
2011,04,16,03,09,1.20
2011,04,16,03,10,1.20
2011,04,16,03,11,1.20
2011,04,16,03,12,1.20
2011,04,16,03,13,1.30
2011,04,16,03,14,1.30
2011,04,16,03,15,1.30
2011,04,16,03,16,1.30
2011,04,16,03,17,1.30
2011,04,16,03,18,1.30
2011,04,16,03,19,1.30
2011,04,16,03,20,1.40
2011,04,16,03,21,1.40
2011,04,16,03,22,1.40
2011,04,16,03,23,1.40
2011,04,16,03,24,1.40
2011,04,16,03,25,1.40
2011,04,16,03,26,1.40
2011,04,16,03,27,1.40
2011,04,16,03,28,1.40
2011,04,16,03,29,1.40
2011,04,16,03,30,1.50
2011,04,16,03,31,1.50
2011,04,16,03,32,1.50
2011,04,16,03,33,1.50
2011,04,16,03,34,1.50
2011,04,16,03,35,1.50
2011,04,16,03,36,1.60
2011,04,16,03,37,1.60
2011,04,16,03,38,1.60
2011,04,16,03,39,1.60
2011,04,16,03,40,1.60
2011,04,16,03,41,1.60
2011,04,16,03,42,1.60
2011,04,16,03,43,1.60
2011,04,16,03,44,1.60
2011,04,16,03,45,1.60
2011,04,16,03,46,1.60
2011,04,16,03,47,1.60
2011,04,16,03,48,1.60
2011,04,16,03,49,1.60
2011,04,16,03,50,1.60
2011,04,16,03,51,1.60
2011,04,16,03,52,1.60
2011,04,16,03,53,1.60
2011,04,16,03,54,1.60
2011,04,16,03,55,1.60
2011,04,16,03,56,1.60
2011,04,16,03,57,1.60
2011,04,16,03,58,1.60
2011,04,16,03,59,1.60
2011,04,16,04,00,1.60
2011,04,16,04,01,1.50
2011,04,16,04,02,1.50
2011,04,16,04,03,1.50
2011,04,16,04,04,1.50
2011,04,16,04,05,1.50
2011,04,16,04,06,1.50
2011,04,16,04,07,1.50
2011,04,16,04,08,1.50
2011,04,16,04,09,1.50
2011,04,16,04,10,1.50
2011,04,16,04,11,1.50
2011,04,16,04,12,1.50
2011,04,16,04,13,1.50
2011,04,16,04,14,1.50
2011,04,16,04,15,1.40
2011,04,16,04,16,1.40
2011,04,16,04,17,1.40
2011,04,16,04,18,1.40
2011,04,16,04,19,1.40
2011,04,16,04,20,1.40
2011,04,16,04,21,1.40
2011,04,16,04,22,1.40
2011,04,16,04,23,1.40
2011,04,16,04,24,1.40
2011,04,16,04,25,1.40
2011,04,16,04,26,1.30
2011,04,16,04,27,1.30
2011,04,16,04,28,1.30
2011,04,16,04,29,1.30
2011,04,16,04,30,1.30
2011,04,16,04,31,1.30
2011,04,16,04,32,1.30
2011,04,16,04,33,1.40
2011,04,16,04,34,1.30
2011,04,16,04,35,1.30
2011,04,16,04,36,1.30
2011,04,16,04,37,1.30
2011,04,16,04,38,1.30
2011,04,16,04,39,1.30
2011,04,16,04,40,1.30
2011,04,16,04,41,1.30
2011,04,16,04,42,1.30
2011,04,16,04,43,1.30
2011,04,16,04,44,1.30
2011,04,16,04,45,1.20
2011,04,16,04,46,1.20
2011,04,16,04,47,1.20
2011,04,16,04,48,1.20
2011,04,16,04,49,1.20
2011,04,16,04,50,1.20
2011,04,16,04,51,1.20
2011,04,16,04,52,1.10
2011,04,16,04,53,1.10
2011,04,16,04,54,1.10
2011,04,16,04,55,1.10
2011,04,16,04,56,1.10
2011,04,16,04,57,1.10
2011,04,16,04,58,1.00
2011,04,16,04,59,1.00
2011,04,16,05,00,1.00
2011,04,16,05,01,1.00
2011,04,16,05,02,0.90
2011,04,16,05,03,0.90
2011,04,16,05,04,0.90
2011,04,16,05,05,0.90
2011,04,16,05,06,0.90
2011,04,16,05,07,0.80
2011,04,16,05,08,0.80
2011,04,16,05,09,0.80
2011,04,16,05,10,0.80
2011,04,16,05,11,0.80
2011,04,16,05,12,0.80
2011,04,16,05,13,0.80
2011,04,16,05,14,0.80
2011,04,16,05,15,0.80
2011,04,16,05,16,0.80
2011,04,16,05,17,0.80
2011,04,16,05,18,0.80
2011,04,16,05,19,0.80
2011,04,16,05,20,0.80
2011,04,16,05,21,0.80
2011,04,16,05,22,0.80
2011,04,16,05,23,0.80
2011,04,16,05,24,0.80
2011,04,16,05,25,0.80
2011,04,16,05,26,0.80
2011,04,16,05,27,0.80
2011,04,16,05,28,0.80
2011,04,16,05,29,0.80
2011,04,16,05,30,0.80
2011,04,16,05,31,0.80
2011,04,16,05,32,0.80
2011,04,16,05,33,0.80
2011,04,16,05,34,0.80
2011,04,16,05,35,0.70
2011,04,16,05,36,0.70
2011,04,16,05,37,0.70
2011,04,16,05,38,0.70
2011,04,16,05,39,0.70
2011,04,16,05,40,0.70
2011,04,16,05,41,0.70
2011,04,16,05,42,0.70
2011,04,16,05,43,0.70
2011,04,16,05,44,0.70
2011,04,16,05,45,0.70
2011,04,16,05,46,0.70
2011,04,16,05,47,0.70
2011,04,16,05,48,0.70
2011,04,16,05,49,0.70
2011,04,16,05,50,0.70
2011,04,16,05,51,0.70
2011,04,16,05,52,0.70
2011,04,16,05,53,0.70
2011,04,16,05,54,0.80
2011,04,16,05,55,0.80
2011,04,16,05,56,0.80
2011,04,16,05,57,0.80
2011,04,16,05,58,0.80
2011,04,16,05,59,0.80
2011,04,16,06,00,0.80
2011,04,16,06,01,0.80
2011,04,16,06,02,0.80
2011,04,16,06,03,0.80
2011,04,16,06,04,0.80
2011,04,16,06,05,0.80
2011,04,16,06,06,0.80
2011,04,16,06,07,0.80
2011,04,16,06,08,0.90
2011,04,16,06,09,0.90
2011,04,16,06,10,0.90
2011,04,16,06,11,0.90
2011,04,16,06,12,0.90
2011,04,16,06,13,0.90
2011,04,16,06,14,1.00
2011,04,16,06,15,1.00
2011,04,16,06,16,1.00
2011,04,16,06,17,1.00
2011,04,16,06,18,1.10
2011,04,16,06,19,1.10
2011,04,16,06,20,1.10
2011,04,16,06,21,1.10
2011,04,16,06,22,1.10
2011,04,16,06,23,1.10
2011,04,16,06,24,1.10
2011,04,16,06,25,1.10
2011,04,16,06,26,1.10
2011,04,16,06,27,1.10
2011,04,16,06,28,1.10
2011,04,16,06,29,1.10
2011,04,16,06,30,1.10
2011,04,16,06,31,1.10
2011,04,16,06,32,1.20
2011,04,16,06,33,1.20
2011,04,16,06,34,1.20
2011,04,16,06,35,1.20
2011,04,16,06,36,1.20
2011,04,16,06,37,1.20
2011,04,16,06,38,1.20
2011,04,16,06,39,1.20
2011,04,16,06,40,1.20
2011,04,16,06,41,1.20
2011,04,16,06,42,1.20
2011,04,16,06,43,1.20
2011,04,16,06,44,1.20
2011,04,16,06,45,1.20
2011,04,16,06,46,1.20
2011,04,16,06,47,1.20
2011,04,16,06,48,1.20
2011,04,16,06,49,1.20
2011,04,16,06,50,1.20
2011,04,16,06,51,1.20
2011,04,16,06,52,1.20
2011,04,16,06,53,1.30
2011,04,16,06,54,1.30
2011,04,16,06,55,1.30
2011,04,16,06,56,1.30
2011,04,16,06,57,1.30
2011,04,16,06,58,1.30
2011,04,16,06,59,1.30
2011,04,16,07,00,1.30
2011,04,16,07,01,1.30
2011,04,16,07,02,1.30
2011,04,16,07,03,1.30
2011,04,16,07,04,1.30
2011,04,16,07,05,1.30
2011,04,16,07,06,1.30
2011,04,16,07,07,1.30
2011,04,16,07,08,1.30
2011,04,16,07,09,1.30
2011,04,16,07,10,1.30
2011,04,16,07,11,1.30
2011,04,16,07,12,1.30
2011,04,16,07,13,1.30
2011,04,16,07,14,1.30
2011,04,16,07,15,1.30
2011,04,16,07,16,1.30
2011,04,16,07,17,1.30
2011,04,16,07,18,1.30
2011,04,16,07,19,1.30
2011,04,16,07,20,1.30
2011,04,16,07,21,1.30
2011,04,16,07,22,1.30
2011,04,16,07,23,1.30
2011,04,16,07,24,1.30
2011,04,16,07,25,1.30
2011,04,16,07,26,1.40
2011,04,16,07,27,1.40
2011,04,16,07,28,1.40
2011,04,16,07,29,1.40
2011,04,16,07,30,1.50
2011,04,16,07,31,1.50
2011,04,16,07,32,1.60
2011,04,16,07,33,1.60
2011,04,16,07,34,1.60
2011,04,16,07,35,1.60
2011,04,16,07,36,1.70
2011,04,16,07,37,1.70
2011,04,16,07,38,1.70
2011,04,16,07,39,1.70
2011,04,16,07,40,1.70
2011,04,16,07,41,1.80
2011,04,16,07,42,1.80
2011,04,16,07,43,1.80
2011,04,16,07,44,1.90
2011,04,16,07,45,1.90
2011,04,16,07,46,2.00
2011,04,16,07,47,2.00
2011,04,16,07,48,2.00
2011,04,16,07,49,2.10
2011,04,16,07,50,2.10
2011,04,16,07,51,2.20
2011,04,16,07,52,2.20
2011,04,16,07,53,2.20
2011,04,16,07,54,2.30
2011,04,16,07,55,2.30
2011,04,16,07,56,2.30
2011,04,16,07,57,2.30
2011,04,16,07,58,2.40
2011,04,16,07,59,2.40
2011,04,16,08,00,2.40
2011,04,16,08,01,2.40
2011,04,16,08,02,2.50
2011,04,16,08,03,2.50
2011,04,16,08,04,2.50
2011,04,16,08,05,2.50
2011,04,16,08,06,2.60
2011,04,16,08,07,2.60
2011,04,16,08,08,2.60
2011,04,16,08,09,2.60
2011,04,16,08,10,2.60
2011,04,16,08,11,2.60
2011,04,16,08,12,2.70
2011,04,16,08,13,2.70
2011,04,16,08,14,2.70
2011,04,16,08,15,2.70
2011,04,16,08,16,2.70
2011,04,16,08,17,2.70
2011,04,16,08,18,2.80
2011,04,16,08,19,2.80
2011,04,16,08,20,2.80
2011,04,16,08,21,2.80
2011,04,16,08,22,2.80
2011,04,16,08,23,2.80
2011,04,16,08,24,2.80
2011,04,16,08,25,2.80
2011,04,16,08,26,2.90
2011,04,16,08,27,2.90
2011,04,16,08,28,2.90
2011,04,16,08,29,2.90
2011,04,16,08,30,2.90
2011,04,16,08,31,2.90
2011,04,16,08,32,2.90
2011,04,16,08,33,3.00
2011,04,16,08,34,3.00
2011,04,16,08,35,3.00
2011,04,16,08,36,3.00
2011,04,16,08,37,3.00
2011,04,16,08,38,3.00
2011,04,16,08,39,3.10
2011,04,16,08,40,3.10
2011,04,16,08,41,3.10
2011,04,16,08,42,3.10
2011,04,16,08,43,3.10
2011,04,16,08,44,3.20
2011,04,16,08,45,3.20
2011,04,16,08,46,3.20
2011,04,16,08,47,3.20
2011,04,16,08,48,3.30
2011,04,16,08,49,3.30
2011,04,16,08,50,3.30
2011,04,16,08,51,3.30
2011,04,16,08,52,3.40
2011,04,16,08,53,3.40
2011,04,16,08,54,3.40
2011,04,16,08,55,3.40
2011,04,16,08,56,3.40
2011,04,16,08,57,3.50
2011,04,16,08,58,3.50
2011,04,16,08,59,3.60
2011,04,16,09,00,3.60
2011,04,16,09,01,3.60
2011,04,16,09,02,3.60
2011,04,16,09,03,3.70
2011,04,16,09,04,3.70
2011,04,16,09,05,3.70
2011,04,16,09,06,3.80
2011,04,16,09,07,3.80
2011,04,16,09,08,3.80
2011,04,16,09,09,3.80
2011,04,16,09,10,3.90
2011,04,16,09,11,3.90
2011,04,16,09,12,3.90
2011,04,16,09,13,3.90
2011,04,16,09,14,4.00
2011,04,16,09,15,4.00
2011,04,16,09,16,4.00
2011,04,16,09,17,4.10
2011,04,16,09,18,4.10
2011,04,16,09,19,4.10
2011,04,16,09,20,4.20
2011,04,16,09,21,4.20
2011,04,16,09,22,4.20
2011,04,16,09,23,4.30
2011,04,16,09,24,4.30
2011,04,16,09,25,4.30
2011,04,16,09,26,4.40
2011,04,16,09,27,4.40
2011,04,16,09,28,4.40
2011,04,16,09,29,4.50
2011,04,16,09,30,4.50
2011,04,16,09,31,4.60
2011,04,16,09,32,4.60
2011,04,16,09,33,4.60
2011,04,16,09,34,4.60
2011,04,16,09,35,4.70
2011,04,16,09,36,4.70
2011,04,16,09,37,4.70
2011,04,16,09,38,4.80
2011,04,16,09,39,4.80
2011,04,16,09,40,4.90
2011,04,16,09,41,5.00
2011,04,16,09,42,5.00
2011,04,16,09,43,5.10
2011,04,16,09,44,5.20
2011,04,16,09,45,5.30
2011,04,16,09,46,5.30
2011,04,16,09,47,5.40
2011,04,16,09,48,5.40
2011,04,16,09,49,5.40
2011,04,16,09,50,5.40
2011,04,16,09,51,5.50
2011,04,16,09,52,5.50
2011,04,16,09,53,5.60
2011,04,16,09,54,5.60
2011,04,16,09,55,5.60
2011,04,16,09,56,5.60
2011,04,16,09,57,5.60
2011,04,16,09,58,5.60
2011,04,16,09,59,5.60
2011,04,16,10,00,5.60
2011,04,16,10,01,5.60
2011,04,16,10,02,5.60
2011,04,16,10,03,5.60
2011,04,16,10,04,5.60
2011,04,16,10,05,5.50
2011,04,16,10,06,5.50
2011,04,16,10,07,5.50
2011,04,16,10,08,5.50
2011,04,16,10,09,5.50
2011,04,16,10,10,5.50
2011,04,16,10,11,5.50
2011,04,16,10,12,5.50
2011,04,16,10,13,5.50
2011,04,16,10,14,5.50
2011,04,16,10,15,5.50
2011,04,16,10,16,5.50
2011,04,16,10,17,5.50
2011,04,16,10,18,5.40
2011,04,16,10,19,5.40
2011,04,16,10,20,5.40
2011,04,16,10,21,5.30
2011,04,16,10,22,5.30
2011,04,16,10,23,5.20
2011,04,16,10,24,5.20
2011,04,16,10,25,5.10
2011,04,16,10,26,5.10
2011,04,16,10,27,5.10
2011,04,16,10,28,5.00
2011,04,16,10,29,5.00
2011,04,16,10,30,5.00
2011,04,16,10,31,5.00
2011,04,16,10,32,4.90
2011,04,16,10,33,4.90
2011,04,16,10,34,4.90
2011,04,16,10,35,4.90
2011,04,16,10,36,4.90
2011,04,16,10,37,4.90
2011,04,16,10,38,4.90
2011,04,16,10,39,4.90
2011,04,16,10,40,4.90
2011,04,16,10,41,4.80
2011,04,16,10,42,4.80
2011,04,16,10,43,4.80
2011,04,16,10,44,4.70
2011,04,16,10,45,4.70
2011,04,16,10,46,4.70
2011,04,16,10,47,4.70
2011,04,16,10,48,4.70
2011,04,16,10,49,4.70
2011,04,16,10,50,4.70
2011,04,16,10,51,4.70
2011,04,16,10,52,4.60
2011,04,16,10,53,4.60
2011,04,16,10,54,4.60
2011,04,16,10,55,4.60
2011,04,16,10,56,4.60
2011,04,16,10,57,4.60
2011,04,16,10,58,4.50
2011,04,16,10,59,4.50
2011,04,16,11,00,4.50
2011,04,16,11,01,4.50
2011,04,16,11,02,4.50
2011,04,16,11,03,4.50
2011,04,16,11,04,4.40
2011,04,16,11,05,4.40
2011,04,16,11,06,4.40
2011,04,16,11,07,4.40
2011,04,16,11,08,4.40
2011,04,16,11,09,4.40
2011,04,16,11,10,4.40
2011,04,16,11,11,4.40
2011,04,16,11,12,4.40
2011,04,16,11,13,4.30
2011,04,16,11,14,4.30
2011,04,16,11,15,4.30
2011,04,16,11,16,4.30
2011,04,16,11,17,4.30
2011,04,16,11,18,4.30
2011,04,16,11,19,4.30
2011,04,16,11,20,4.40
2011,04,16,11,21,4.40
2011,04,16,11,22,4.50
2011,04,16,11,23,4.60
2011,04,16,11,24,4.60
2011,04,16,11,25,4.80
2011,04,16,11,26,4.90
2011,04,16,11,27,4.90
2011,04,16,11,28,5.00
2011,04,16,11,29,5.00
2011,04,16,11,30,5.10
2011,04,16,11,31,5.10
2011,04,16,11,32,5.20
2011,04,16,11,33,5.20
2011,04,16,11,34,5.30
2011,04,16,11,35,5.30
2011,04,16,11,36,5.20
2011,04,16,11,37,5.20
2011,04,16,11,38,5.30
2011,04,16,11,39,5.30
2011,04,16,11,40,5.40
2011,04,16,11,41,5.50
2011,04,16,11,42,5.50
2011,04,16,11,43,5.60
2011,04,16,11,44,5.70
2011,04,16,11,45,5.60
2011,04,16,11,46,5.70
2011,04,16,11,47,5.70
2011,04,16,11,48,5.70
2011,04,16,11,49,5.80
2011,04,16,11,50,5.70
2011,04,16,11,51,5.70
2011,04,16,11,52,5.60
2011,04,16,11,53,5.50
2011,04,16,11,54,5.50
2011,04,16,11,55,5.40
2011,04,16,11,56,5.40
2011,04,16,11,57,5.40
2011,04,16,11,58,5.40
2011,04,16,11,59,5.40
2011,04,16,12,00,5.30
2011,04,16,12,01,5.30
2011,04,16,12,02,5.30
2011,04,16,12,03,5.40
2011,04,16,12,04,5.50
2011,04,16,12,05,5.60
2011,04,16,12,06,5.70
2011,04,16,12,07,5.80
2011,04,16,12,08,6.00
2011,04,16,12,09,6.20
2011,04,16,12,10,6.30
2011,04,16,12,11,6.30
2011,04,16,12,12,6.40
2011,04,16,12,13,6.40
2011,04,16,12,14,6.40
2011,04,16,12,15,6.50
2011,04,16,12,16,6.60
2011,04,16,12,17,6.50
2011,04,16,12,18,6.40
2011,04,16,12,19,6.30
2011,04,16,12,20,6.30
2011,04,16,12,21,6.30
2011,04,16,12,22,6.40
2011,04,16,12,23,6.50
2011,04,16,12,24,6.60
2011,04,16,12,25,6.70
2011,04,16,12,26,6.70
2011,04,16,12,27,6.70
2011,04,16,12,28,6.80
2011,04,16,12,29,6.80
2011,04,16,12,30,6.90
2011,04,16,12,31,6.90
2011,04,16,12,32,7.00
2011,04,16,12,33,7.10
2011,04,16,12,34,7.30
2011,04,16,12,35,7.40
2011,04,16,12,36,7.50
2011,04,16,12,37,7.60
2011,04,16,12,38,7.60
2011,04,16,12,39,7.70
2011,04,16,12,40,7.80
2011,04,16,12,41,7.80
2011,04,16,12,42,7.80
2011,04,16,12,43,7.90
2011,04,16,12,44,7.80
2011,04,16,12,45,7.80
2011,04,16,12,46,7.80
2011,04,16,12,47,7.80
2011,04,16,12,48,7.70
2011,04,16,12,49,7.60
2011,04,16,12,50,7.40
2011,04,16,12,51,7.30
2011,04,16,12,52,7.20
2011,04,16,12,53,7.20
2011,04,16,12,54,7.20
2011,04,16,12,55,7.40
2011,04,16,12,56,7.50
2011,04,16,12,57,7.60
2011,04,16,12,58,7.60
2011,04,16,12,59,7.50
2011,04,16,13,00,7.40
2011,04,16,13,01,7.40
2011,04,16,13,02,7.40
2011,04,16,13,03,7.40
2011,04,16,13,04,7.40
2011,04,16,13,05,7.50
2011,04,16,13,06,7.50
2011,04,16,13,07,7.60
2011,04,16,13,08,7.50
2011,04,16,13,09,7.50
2011,04,16,13,10,7.40
2011,04,16,13,11,7.40
2011,04,16,13,12,7.40
2011,04,16,13,13,7.50
2011,04,16,13,14,7.50
2011,04,16,13,15,7.60
2011,04,16,13,16,7.60
2011,04,16,13,17,7.70
2011,04,16,13,18,7.80
2011,04,16,13,19,7.90
2011,04,16,13,20,8.00
2011,04,16,13,21,8.20
2011,04,16,13,22,8.20
2011,04,16,13,23,8.20
2011,04,16,13,24,8.30
2011,04,16,13,25,8.40
2011,04,16,13,26,8.40
2011,04,16,13,27,8.50
2011,04,16,13,28,8.40
2011,04,16,13,29,8.30
2011,04,16,13,30,8.30
2011,04,16,13,31,8.30
2011,04,16,13,32,8.40
2011,04,16,13,33,8.40
2011,04,16,13,34,8.40
2011,04,16,13,35,8.40
2011,04,16,13,36,8.30
2011,04,16,13,37,8.30
2011,04,16,13,38,8.20
2011,04,16,13,39,8.20
2011,04,16,13,40,8.20
2011,04,16,13,41,8.20
2011,04,16,13,42,8.30
2011,04,16,13,43,8.30
2011,04,16,13,44,8.40
2011,04,16,13,45,8.30
2011,04,16,13,46,8.20
2011,04,16,13,47,8.20
2011,04,16,13,48,8.20
2011,04,16,13,49,8.20
2011,04,16,13,50,8.20
2011,04,16,13,51,8.10
2011,04,16,13,52,8.10
2011,04,16,13,53,8.00
2011,04,16,13,54,8.00
2011,04,16,13,55,7.90
2011,04,16,13,56,7.90
2011,04,16,13,57,7.90
2011,04,16,13,58,8.00
2011,04,16,13,59,8.00
2011,04,16,14,00,8.00
2011,04,16,14,01,8.00
2011,04,16,14,02,8.10
2011,04,16,14,03,8.20
2011,04,16,14,04,8.30
2011,04,16,14,05,8.30
2011,04,16,14,06,8.30
2011,04,16,14,07,8.20
2011,04,16,14,08,8.20
2011,04,16,14,09,8.20
2011,04,16,14,10,8.20
2011,04,16,14,11,8.20
2011,04,16,14,12,8.20
2011,04,16,14,13,8.20
2011,04,16,14,14,8.10
2011,04,16,14,15,8.10
2011,04,16,14,16,8.00
2011,04,16,14,17,7.90
2011,04,16,14,18,8.00
2011,04,16,14,19,8.00
2011,04,16,14,20,8.10
2011,04,16,14,21,8.10
2011,04,16,14,22,8.20
2011,04,16,14,23,8.20
2011,04,16,14,24,8.20
2011,04,16,14,25,8.20
2011,04,16,14,26,8.20
2011,04,16,14,27,8.10
2011,04,16,14,28,8.10
2011,04,16,14,29,8.20
2011,04,16,14,30,8.10
2011,04,16,14,31,8.10
2011,04,16,14,32,7.90
2011,04,16,14,33,7.80
2011,04,16,14,34,7.70
2011,04,16,14,35,7.60
2011,04,16,14,36,7.50
2011,04,16,14,37,7.40
2011,04,16,14,38,7.30
2011,04,16,14,39,7.20
2011,04,16,14,40,7.20
2011,04,16,14,41,7.20
2011,04,16,14,42,7.20
2011,04,16,14,43,7.10
2011,04,16,14,44,7.10
2011,04,16,14,45,7.10
2011,04,16,14,46,7.10
2011,04,16,14,47,7.10
2011,04,16,14,48,7.20
2011,04,16,14,49,7.20
2011,04,16,14,50,7.30
2011,04,16,14,51,7.30
2011,04,16,14,52,7.30
2011,04,16,14,53,7.40
2011,04,16,14,54,7.40
2011,04,16,14,55,7.30
2011,04,16,14,56,7.30
2011,04,16,14,57,7.30
2011,04,16,14,58,7.30
2011,04,16,14,59,7.30
2011,04,16,15,00,7.30
2011,04,16,15,01,7.30
2011,04,16,15,02,7.40
2011,04,16,15,03,7.40
2011,04,16,15,04,7.50
2011,04,16,15,05,7.50
2011,04,16,15,06,7.60
2011,04,16,15,07,7.70
2011,04,16,15,08,7.70
2011,04,16,15,09,7.80
2011,04,16,15,10,7.90
2011,04,16,15,11,8.00
2011,04,16,15,12,8.20
2011,04,16,15,13,8.30
2011,04,16,15,14,8.40
2011,04,16,15,15,8.50
2011,04,16,15,16,8.60
2011,04,16,15,17,8.70
2011,04,16,15,18,8.70
2011,04,16,15,19,8.80
2011,04,16,15,20,8.80
2011,04,16,15,21,8.80
2011,04,16,15,22,8.80
2011,04,16,15,23,8.80
2011,04,16,15,24,8.70
2011,04,16,15,25,8.70
2011,04,16,15,26,8.70
2011,04,16,15,27,8.70
2011,04,16,15,28,8.80
2011,04,16,15,29,8.80
2011,04,16,15,30,8.80
2011,04,16,15,31,8.90
2011,04,16,15,32,9.00
2011,04,16,15,33,9.10
2011,04,16,15,34,9.10
2011,04,16,15,35,9.10
2011,04,16,15,36,9.10
2011,04,16,15,37,9.10
2011,04,16,15,38,9.10
2011,04,16,15,39,9.10
2011,04,16,15,40,9.10
2011,04,16,15,41,9.10
2011,04,16,15,42,9.10
2011,04,16,15,43,9.10
2011,04,16,15,44,9.20
2011,04,16,15,45,9.20
2011,04,16,15,46,9.30
2011,04,16,15,47,9.40
2011,04,16,15,48,9.50
2011,04,16,15,49,9.60
2011,04,16,15,50,9.70
2011,04,16,15,51,9.80
2011,04,16,15,52,9.80
2011,04,16,15,53,9.80
2011,04,16,15,54,9.80
2011,04,16,15,55,9.80
2011,04,16,15,56,9.80
2011,04,16,15,57,9.80
2011,04,16,15,58,9.80
2011,04,16,15,59,9.80
2011,04,16,16,00,9.80
2011,04,16,16,01,9.80
2011,04,16,16,02,9.80
2011,04,16,16,03,9.80
2011,04,16,16,04,9.70
2011,04,16,16,05,9.70
2011,04,16,16,06,9.70
2011,04,16,16,07,9.80
2011,04,16,16,08,9.80
2011,04,16,16,09,9.80
2011,04,16,16,10,9.80
2011,04,16,16,11,9.90
2011,04,16,16,12,10.00
2011,04,16,16,13,10.10
2011,04,16,16,14,10.10
2011,04,16,16,15,10.10
2011,04,16,16,16,10.00
2011,04,16,16,17,10.00
2011,04,16,16,18,10.00
2011,04,16,16,19,9.90
2011,04,16,16,20,9.80
2011,04,16,16,21,9.80
2011,04,16,16,22,9.70
2011,04,16,16,23,9.70
2011,04,16,16,24,9.60
2011,04,16,16,25,9.50
2011,04,16,16,26,9.50
2011,04,16,16,27,9.50
2011,04,16,16,28,9.50
2011,04,16,16,29,9.40
2011,04,16,16,30,9.30
2011,04,16,16,31,9.30
2011,04,16,16,32,9.20
2011,04,16,16,33,9.20
2011,04,16,16,34,9.20
2011,04,16,16,35,9.20
2011,04,16,16,36,9.20
2011,04,16,16,37,9.20
2011,04,16,16,38,9.20
2011,04,16,16,39,9.10
2011,04,16,16,40,9.10
2011,04,16,16,41,9.10
2011,04,16,16,42,9.10
2011,04,16,16,43,9.10
2011,04,16,16,44,9.10
2011,04,16,16,45,9.20
2011,04,16,16,46,9.30
2011,04,16,16,47,9.30
2011,04,16,16,48,9.30
2011,04,16,16,49,9.20
2011,04,16,16,50,9.20
2011,04,16,16,51,9.20
2011,04,16,16,52,9.20
2011,04,16,16,53,9.30
2011,04,16,16,54,9.30
2011,04,16,16,55,9.30
2011,04,16,16,56,9.40
2011,04,16,16,57,9.50
2011,04,16,16,58,9.50
2011,04,16,16,59,9.50
2011,04,16,17,00,9.40
2011,04,16,17,01,9.40
2011,04,16,17,02,9.30
2011,04,16,17,03,9.30
2011,04,16,17,04,9.20
2011,04,16,17,05,9.10
2011,04,16,17,06,9.00
2011,04,16,17,07,8.90
2011,04,16,17,08,8.80
2011,04,16,17,09,8.70
2011,04,16,17,10,8.70
2011,04,16,17,11,8.70
2011,04,16,17,12,8.60
2011,04,16,17,13,8.60
2011,04,16,17,14,8.60
2011,04,16,17,15,8.60
2011,04,16,17,16,8.60
2011,04,16,17,17,8.70
2011,04,16,17,18,8.70
2011,04,16,17,19,8.70
2011,04,16,17,20,8.70
2011,04,16,17,21,8.70
2011,04,16,17,22,8.70
2011,04,16,17,23,8.70
2011,04,16,17,24,8.70
2011,04,16,17,25,8.70
2011,04,16,17,26,8.70
2011,04,16,17,27,8.80
2011,04,16,17,28,8.80
2011,04,16,17,29,8.80
2011,04,16,17,30,8.80
2011,04,16,17,31,8.80
2011,04,16,17,32,8.80
2011,04,16,17,33,8.80
2011,04,16,17,34,8.80
2011,04,16,17,35,8.80
2011,04,16,17,36,8.80
2011,04,16,17,37,8.80
2011,04,16,17,38,8.90
2011,04,16,17,39,9.00
2011,04,16,17,40,9.00
2011,04,16,17,41,9.10
2011,04,16,17,42,9.10
2011,04,16,17,43,9.20
2011,04,16,17,44,9.20
2011,04,16,17,45,9.20
2011,04,16,17,46,9.20
2011,04,16,17,47,9.20
2011,04,16,17,48,9.20
2011,04,16,17,49,9.20
2011,04,16,17,50,9.20
2011,04,16,17,51,9.20
2011,04,16,17,52,9.20
2011,04,16,17,53,9.10
2011,04,16,17,54,9.10
2011,04,16,17,55,9.20
2011,04,16,17,56,9.20
2011,04,16,17,57,9.20
2011,04,16,17,58,9.20
2011,04,16,17,59,9.20
2011,04,16,18,00,9.10
2011,04,16,18,01,9.10
2011,04,16,18,02,9.10
2011,04,16,18,03,9.10
2011,04,16,18,04,9.10
2011,04,16,18,05,9.10
2011,04,16,18,06,9.10